Regional Weather Roundup
Issued by NWS

Home | Current Version | Previous Version | Graphics & Text | Print | Product List | Glossary On
Versions: 1 2 3 4 5 6 7 8 9 10 11 12 13 14 15 16 17 18 19 20 21 22 23 24 25 26 27 28 29 30 31 32 33 34 35 36 37 38 39 40 41 42 43 44 45 46 47 48 49 50
000
ASUS45 KCYS 060510
RWRWY

WYOMING REGIONAL WEATHER ROUNDUP
NATIONAL WEATHER SERVICE CHEYENNE WY
1100 PM MDT SUN JUL 05 2015

NOTE:  "FAIR" INDICATES FEW OR NO CLOUDS BELOW 12,000 FEET
WITH NO SIGNIFICANT WEATHER AND/OR OBSTRUCTIONS TO VISIBILITY.

WYZ001-060600-
YELLOWSTONE NATIONAL PARK

CITY           SKY/WX    TMP DP  RH WIND       PRES   REMARKS
LK YELLOWSTONE   N/A     49  47  93 CALM      30.35R
W YELLOWSTONE  NOT AVBL

$$
WYZ002>013-054>058-071-098>099-060600-
NORTHERN WYOMING

CITY           SKY/WX    TMP DP  RH WIND       PRES   REMARKS
JACKSON        FAIR      57  55  94 S6        30.23S
CODY           MOCLDY    54  48  82 W6        30.24F
GREYBULL       CLOUDY    59  52  77 NW16      30.16R
WORLAND        CLOUDY    59  55  87 NW9       30.17R FOG
SHERIDAN       RAIN      56  53  90 W7        30.21R FOG
BUFFALO        CLOUDY    53  52  96 NW10      30.23S FOG
GILLETTE       CLOUDY    56  54  93 N6        30.17R FOG
HULETT         MOCLDY    55  54  94 CALM      30.15F FOG
NEWCASTLE      MOCLDY    59  54  82 NW9       30.10R

$$
WYZ014>020-022>026-101>103-060600-
CENTRAL WYOMING

CITY           SKY/WX    TMP DP  RH WIND       PRES   REMARKS
BIG PINEY      CLOUDY    57  53  86 NW7       30.24R
PINEDALE       CLOUDY    57  52  82 CALM      30.25S
DUBOIS         MOCLDY    54  50  87 NW5       30.26S
LANDER         MOCLDY    58  55  90 W3        30.18R
RIVERTON       CLOUDY    59  57  93 N7        30.19R
CASPER         LGT RAIN  56  54  93 N8        30.18R FOG
DOUGLAS        CLOUDY    58  56  93 NW13      30.15S FOG

$$
WYZ021-027>030-104>119-060600-
SOUTHERN WYOMING

CITY           SKY/WX    TMP DP  RH WIND       PRES   REMARKS
EVANSTON       FAIR      58  52  80 CALM      30.24R
KEMMERER       FAIR      57  50  77 NW8       30.25S
FORT BRIDGER   PTCLDY    61  59  94 CALM      30.26R
ROCK SPRINGS   MOCLDY    59  56  89 NE7       30.22R
DIXON          FAIR      55  53  91 CALM      30.24S
RAWLINS        MOCLDY    57  56  96 E5        30.21S
SARATOGA       FAIR      55  54  94 CALM      30.23S
LARAMIE        FAIR      57  55  93 NW8       30.21S
CHEYENNE       CLOUDY    60  57  89 N18G28    30.14R
TORRINGTON     CLOUDY    63  59  87 NE21G28   30.05R
PINE BLUFFS    CLOUDY    63  59  88 N13G23    30.10R

$$



USA.gov is the U.S. government's official web portal to all federal, state and local government web resources and services.